Flag for American Samoa Weather past 2 weeks in Pago Pago, American Samoa

Now
80 °F

Passing clouds.


Feels Like: 85 °F
Forecast: 78 / 82 °F
Wind: 12 mph from Southeast

Location: Pago Pago / Int. Airp.

Current Time: Sep 17, 2014 at 10:59:48 PM

Latest Report: Sep 17, 2014 at 9:54 PM


Visibility: 10 mi

Pressure: 29.95 "Hg

Humidity: 85%

Dew point: 75 °F

Location of Pago PagoLocation

Historic Weather in Pago Pago — Graph

°F

Pago Pago temperature yesterday

Maximum temperature yesterday: 89 °F (at 12:50 PM)
Minimum temperature yesterday: 79 °F (at 12:50 AM)
Average temperature yesterday: 83 °F

Past Weeks' High & Low Weather Summary

 TemperatureHumidityPressure
High89 °F (Sep 16, 12:50 PM)100% (Sep 14, 7:50 PM)29.99 "Hg (Sep 14, 7:50 PM)
Low77 °F (Sep 9, 9:55 PM)65% (Sep 4, 2:52 PM)29.80 "Hg (Sep 14, 3:57 AM)
Average81 °F84%29.90 "Hg
* Reported Sep 2 9:51 PM — Sep 17 9:54 PM, Pago Pago, Weather by CustomWeather, © 2014

Note: Actual official high and low records may vary slightly from our data, if they occured in-between our weather recording intervals... More about our weather records

Advertising

Pago Pago weather history for previous 24 hours

 ConditionsComfort  
Time TempWeatherWind HumidityBarometerVisibility
9:54 PM
Sep 17
80 °FPassing clouds.12 mph85%29.95 "Hg10 mi
8:52 PM80 °FPartly cloudy.12 mph83%29.93 "Hg10 mi
7:52 PM80 °FPartly cloudy.12 mph85%29.93 "Hg10 mi
6:50 PM80 °FPartly cloudy.12 mph86%29.91 "Hg10 mi
5:54 PM81 °FBroken clouds.9 mph84%29.90 "Hg10 mi
4:53 PM80 °FMostly cloudy.5 mph86%29.89 "Hg10 mi
3:50 PM81 °FMore clouds than sun.3 mph84%29.88 "Hg12 mi
2:50 PM82 °FBroken clouds.6 mph83%29.90 "Hg12 mi
1:52 PM85 °FBroken clouds.12 mph78%29.91 "Hg12 mi
12:50 PM83 °FPartly sunny.13 mph83%29.93 "Hg12 mi
11:55 AM82 °FBroken clouds.10 mph86%29.96 "Hg12 mi
9:58 AM82 °FBroken clouds.12 mph84%29.98 "Hg10 mi
8:52 AM79 °FSprinkles. Broken clouds.3 mph96%29.98 "Hg12 mi
7:50 AM77 °FSprinkles. Broken clouds.6 mph97%29.96 "Hg12 mi
6:50 AM80 °FBroken clouds.9 mph91%29.95 "Hg12 mi
5:50 AM79 °FPartly cloudy.8 mph93%29.92 "Hg10 mi
4:55 AM79 °FPassing clouds.7 mph93%29.90 "Hg10 mi
3:54 AM79 °FPartly cloudy.8 mph94%29.90 "Hg10 mi
1:56 AM80 °FPassing clouds.10 mph89%29.90 "Hg10 mi
12:50 AM80 °FPassing clouds.9 mph89%29.90 "Hg10 mi
11:50 PM
Sep 16
80 °FPassing clouds.9 mph89%29.93 "Hg10 mi
10:56 PM81 °FPassing clouds.9 mph89%29.93 "Hg10 mi
Weather by CustomWeather, © 2014

See weather overviewHow to use our weather pages